Regional Weather Roundup
Issued by NWS

Home | Current Version | Previous Version | Graphics & Text | Print | Product List | Glossary On
Versions: 1 2 3 4 5 6 7 8 9 10 11 12 13 14 15 16 17 18 19 20 21 22 23 24 25 26 27 28 29 30 31 32 33 34 35 36 37 38 39 40 41 42 43 44 45 46 47 48 49 50
000
ASUS43 KOAX 221302
RWRNE

WEATHER ROUNDUP FOR NEBRASKA
NATIONAL WEATHER SERVICE OMAHA NE
800 AM CDT FRI JUL 22 2016

NOTES: SATELLITE DATA IS BEING USED TO AUGMENT CLOUD COVER ABOVE
       12000 FEET.
       "FAIR" INDICATES FEW OR NO CLOUDS BELOW 12,000 FEET WITH NO
       SIGNIFICANT WEATHER AND/OR OBSTRUCTIONS TO VISIBILITY.

  * THESE STATIONS DO NOT REPORT WEATHER SUCH AS RAIN...SNOW OR FOG.

NEZ001>004-019>022-054>056-221400-
NEBRASKA PANHANDLE

CITY           SKY/WX    TMP DP  RH WIND       PRES   REMARKS
SCOTTSBLUFF    CLOUDY    72  65  78 CALM      30.13R
ALLIANCE       CLOUDY    67  63  87 CALM      30.12S
CHADRON        CLOUDY    73  63  70 CALM      30.09S
SIDNEY         PTSUNNY   74  63  68 CALM      30.15S
$$

NEZ057>060-069>072-079>082-221400-
SOUTHWEST NEBRASKA

CITY           SKY/WX    TMP DP  RH WIND       PRES   REMARKS
NORTH PLATTE   SUNNY     76  71  85 CALM      30.04R
IMPERIAL       SUNNY     73  66  78 N5        30.08R
LEXINGTON      SUNNY     74  71  89 NW5       30.00R
MCCOOK         MOSUNNY   76  70  82 CALM      30.00R
OGALLALA       MOSUNNY   78  71  78 NE5       30.08R
$$

NEZ005>010-023>029-035>040-094-221400-
NORTH CENTRAL NEBRASKA

CITY           SKY/WX    TMP DP  RH WIND       PRES   REMARKS
VALENTINE      SUNNY     71  68  90 W3        30.04S
AINSWORTH      SUNNY     74  73  98 NW5       30.04S
BROKEN BOW     SUNNY     77  74  90 NW3       30.00S
O`NEILL        FOG       75  73  94 N5        29.99R VSB<1/4
ORD            SUNNY     78  73  84 CALM      29.96S
THEDFORD       SUNNY     76  73  90 NW3       30.06R
$$

NEZ041-046>049-061>064-073>077-083>087-221400-
SOUTH CENTRAL NEBRASKA

CITY           SKY/WX    TMP DP  RH WIND       PRES   REMARKS
GRAND ISLAND   SUNNY     78  72  81 W6        29.96R
AURORA         SUNNY     76  71  84 SW5       29.95R
HASTINGS       SUNNY     77  68  73 SW5       29.97S
HEBRON         SUNNY     80  67  64 SW10      29.95R
HOLDREGE       SUNNY     76  72  89 N3        29.98S
KEARNEY *      SUNNY     77  72  83 N6        29.98S
$$

NEZ011>018-030>034-042>045-221400-
NORTHEAST NEBRASKA

CITY           SKY/WX    TMP DP  RH WIND       PRES   REMARKS
NORFOLK        SUNNY     78  73  84 SE6       29.92S
ALBION         SUNNY     76  73  91 CALM      29.95R FOG
BLAIR          CLOUDY    78  74  86 SE5       29.94R
FREMONT        SUNNY     80  73  80 SE6       29.93S
TEKAMAH        MOSUNNY   80  75  84 SE8       29.91S
WAYNE          SUNNY     79  78  96 NE5       29.93S FOG
$$

NEZ050>053-065>068-078-088>093-221400-
SOUTHEAST NEBRASKA

CITY           SKY/WX    TMP DP  RH WIND       PRES   REMARKS
LINCOLN        SUNNY     82  70  66 S6        29.93R
OMAHA EPPLEY   CLOUDY    81  73  76 S8        29.93R
BEATRICE       SUNNY     82  69  65 S9        29.95R
FALLS CITY     SUNNY     81  72  74 S8        29.96R
NEBRASKA CITY  SUNNY     80  71  74 SW7       29.94S
PLATTSMOUTH    SUNNY     80  73  79 SE6       29.94S
$$

NEZ044-045-051>053-067-221400-
OMAHA AREA

CITY           SKY/WX    TMP DP  RH WIND       PRES   REMARKS
OMAHA EPPLEY   CLOUDY    81  73  76 S8        29.93R
BLAIR          CLOUDY    78  74  86 SE5       29.94R
FREMONT        SUNNY     80  73  80 SE6       29.93S
MILLARD        SUNNY     81  74  81 SE3       29.93R
OFFUTT AFB     SUNNY     80  74  82 SE6       29.93R
PLATTSMOUTH    SUNNY     80  73  79 SE6       29.94S
WAHOO          FAIR      79  74  86 SE5       29.92F
$$




USA.gov is the U.S. government's official web portal to all federal, state and local government web resources and services.